Fowler, IL

12:54 AM CST on February 07, 2016 (GMT -0600)
Quincy Regional-Baldwin

Weather History for KUIN - December, 2009

Change the Weather History Date:

Thursday, December 31, 2009

  Actual Average Record
Temperature  
Mean Temperature 21 °F 27 °F  
Max Temperature 33 °F 35 °F 64 °F (1951)
Min Temperature 9 °F 19 °F -10 °F (1976)
Degree Days  
Heating Degree Days 44 38  
Month to date heating degree days 1091  
Since 1 July heating degree days 2191  
Cooling Degree Days 0 0  
Month to date cooling degree days 0  
Year to date cooling degree days 1094  
Moisture  
Dew Point 18 °F    
Average Humidity 82    
Maximum Humidity 96    
Minimum Humidity 68    
Precipitation  
Precipitation 0.00 in 0.06 in 1.42 in (2010)
Month to date precipitation 2.25  
Year to date precipitation 37.33  
Sea Level Pressure  
Sea Level Pressure 30.14 in    
Wind  
Wind Speed 10 mph (WNW)    
Max Wind Speed 24 mph    
Max Gust Speed 29 mph    
Visibility 8 miles    
Events      
T = Trace of Precipitation, MM = Missing Value Source: NWS Daily Summary

Daily Weather History Graph

Daily Weather History Graph

Search for Another Location

Airport or City:

Trip Planner

Search our weather history database for the weather conditions in past years. The results will help you decide how hot, cold, wet, or windy it might be!

Date:

Astronomy

Dec. 31, 2009 Rise Set
Actual Time 7:26 AM CST 4:49 PM CST
Civil Twilight 6:55 AM CST 5:20 PM CST
Nautical Twilight 6:22 AM CST 5:54 PM CST
Astronomical Twilight 5:49 AM CST 6:26 PM CST
Moon 4:52 PM CST (12/31) 7:22 AM CST (12/31)
Length of Visible Light 10h 24m
Length of Day
9h 23m
Full, 100% of the Moon is Illuminated
Dec 31
Full
Dec 31
Full
Jan 7
Last Quarter
Jan 15
New
Jan 23
First Quarter

Hourly Weather History & Observations

Time (CST) Temp. Windchill Dew Point Humidity Pressure Visibility Wind Dir Wind Speed Gust Speed Precip Events Conditions
12:32 AM 33.8 °F 28.6 °F 32.0 °F 93% 29.91 in 7.0 mi West 5.8 mph - N/A   Overcast
12:54 AM 33.1 °F 26.1 °F 32.0 °F 96% 29.92 in 9.0 mi West 8.1 mph - N/A   Overcast
1:54 AM 33.1 °F 27.7 °F 32.0 °F 96% 29.94 in 8.0 mi West 5.8 mph - N/A   Overcast
2:07 AM 33.8 °F 29.6 °F 32.0 °F 93% 29.92 in 8.0 mi West 4.6 mph - N/A   Overcast
2:33 AM 33.8 °F 28.6 °F 32.0 °F 93% 29.93 in 9.0 mi West 5.8 mph - N/A   Overcast
2:54 AM 33.1 °F 27.7 °F 32.0 °F 96% 29.96 in 9.0 mi West 5.8 mph - N/A   Overcast
3:54 AM 33.1 °F 26.9 °F 32.0 °F 96% 29.97 in 10.0 mi West 6.9 mph - N/A   Overcast
4:28 AM 33.8 °F 28.6 °F 32.0 °F 93% 29.96 in 7.0 mi West 5.8 mph - N/A   Overcast
4:54 AM 33.1 °F 28.7 °F 32.0 °F 96% 30.00 in 7.0 mi West 4.6 mph - N/A   Overcast
5:54 AM 33.1 °F 26.1 °F 32.0 °F 96% 30.02 in 6.0 mi NW 8.1 mph - N/A   Overcast
6:33 AM 30.2 °F 18.5 °F 28.4 °F 93% 30.01 in 5.0 mi NNW 17.3 mph - N/A   Overcast
6:54 AM 30.0 °F 19.5 °F 27.0 °F 88% 30.04 in 4.0 mi NNW 13.8 mph - N/A   Overcast
7:54 AM 25.0 °F 10.6 °F 21.0 °F 85% 30.09 in 6.0 mi NNW 20.7 mph 28.8 mph N/A   Overcast
8:01 AM 24.8 °F 9.3 °F 19.4 °F 80% 30.06 in 7.0 mi NNW 24.2 mph 27.6 mph N/A   Overcast
8:12 AM 23.0 °F 8.0 °F 19.4 °F 86% 30.07 in 7.0 mi NW 20.7 mph 27.6 mph N/A   Overcast
8:51 AM 21.2 °F 6.0 °F 17.6 °F 86% 30.11 in 6.0 mi NW 19.6 mph - N/A   Overcast
8:54 AM 21.0 °F 4.6 °F 17.1 °F 85% 30.14 in 7.0 mi NNW 23.0 mph 28.8 mph N/A   Overcast
9:17 AM 19.4 °F 6.0 °F 12.2 °F 74% 30.13 in 10.0 mi NNW 13.8 mph - N/A   Mostly Cloudy
9:54 AM 17.1 °F 3.6 °F 10.0 °F 74% 30.19 in 10.0 mi NW 12.7 mph - N/A   Scattered Clouds
10:54 AM 18.0 °F 2.2 °F 10.0 °F 71% 30.22 in 10.0 mi NW 18.4 mph - N/A   Clear
11:54 AM 18.0 °F 2.6 °F 10.0 °F 71% 30.21 in 10.0 mi NW 17.3 mph - N/A   Clear
12:54 PM 19.0 °F 4.0 °F 10.0 °F 68% 30.21 in 10.0 mi NW 17.3 mph - N/A   Clear
1:54 PM 19.0 °F 5.6 °F 10.0 °F 68% 30.22 in 10.0 mi WNW 13.8 mph - N/A   Clear
2:54 PM 19.0 °F 6.1 °F 10.0 °F 68% 30.25 in 10.0 mi NW 12.7 mph - N/A   Clear
3:54 PM 18.0 °F 3.6 °F 9.0 °F 68% 30.27 in 10.0 mi NW 15.0 mph - N/A   Clear
4:54 PM 16.0 °F 3.6 °F 7.0 °F 68% 30.30 in 10.0 mi NW 10.4 mph - N/A   Clear
5:54 PM 12.0 °F 1.5 °F 6.1 °F 77% 30.32 in 10.0 mi WNW 6.9 mph - N/A   Clear
6:54 PM 12.9 °F 0.7 °F 5.0 °F 71% 30.34 in 10.0 mi NW 9.2 mph - N/A   Clear
7:54 PM 10.9 °F 0.2 °F 5.0 °F 77% 30.35 in 10.0 mi WNW 6.9 mph - N/A   Clear
8:54 PM 10.9 °F -4.7 °F 3.9 °F 73% 30.36 in 10.0 mi WNW 13.8 mph - N/A   Clear
9:54 PM 10.0 °F -3.7 °F 3.0 °F 73% 30.38 in 10.0 mi WNW 10.4 mph - N/A   Clear
10:54 PM 9.0 °F -5.1 °F 3.0 °F 77% 30.40 in 10.0 mi NW 10.4 mph - N/A   Clear
11:54 PM 9.0 °F -4.2 °F 3.0 °F 77% 30.40 in 10.0 mi WNW 9.2 mph - N/A   Clear